#datetime,building,power
2022-07-22T00:01:00,pkn,1.20
2022-07-22T00:02:00,pkn,1.20
2022-07-22T00:05:00,pkn,2.40
2022-07-22T00:07:00,pkn,1.20
2022-07-22T00:09:00,pkn,1.20
2022-07-22T00:11:00,pkn,1.20
2022-07-22T00:13:00,pkn,2.40
2022-07-22T00:15:00,pkn,1.20
2022-07-22T00:17:00,pkn,1.20
2022-07-22T00:19:00,pkn,1.20
2022-07-22T00:21:00,pkn,1.20
2022-07-22T00:22:00,pkn,1.20
2022-07-22T00:23:00,pkn,1.20
2022-07-22T00:26:00,pkn,4.80
2022-07-22T00:28:00,pkn,9.60
2022-07-22T00:29:00,pkn,4.80
2022-07-22T00:31:00,pkn,9.60
2022-07-22T00:32:00,pkn,4.80
2022-07-22T00:34:00,pkn,2.40
2022-07-22T00:35:00,pkn,1.20
2022-07-22T00:38:00,pkn,1.20
2022-07-22T00:40:00,pkn,1.20
2022-07-22T00:42:00,pkn,1.20
2022-07-22T00:43:00,pkn,1.20
2022-07-22T00:45:00,pkn,1.20
2022-07-22T00:46:00,pkn,1.20
2022-07-22T00:47:00,pkn,1.20
2022-07-22T00:50:00,pkn,1.20
2022-07-22T00:51:00,pkn,1.20
2022-07-22T00:52:00,pkn,1.20
2022-07-22T00:54:00,pkn,1.20
2022-07-22T00:56:00,pkn,1.20
2022-07-22T00:58:00,pkn,1.20
2022-07-22T01:01:00,pkn,1.20
2022-07-22T01:03:00,pkn,1.20
2022-07-22T01:04:00,pkn,1.20
2022-07-22T01:06:00,pkn,1.20
2022-07-22T01:08:00,pkn,1.20
2022-07-22T01:10:00,pkn,1.20
2022-07-22T01:12:00,pkn,1.20
2022-07-22T01:14:00,pkn,1.20
2022-07-22T01:16:00,pkn,1.20
2022-07-22T01:18:00,pkn,1.20
2022-07-22T01:19:00,pkn,2.40
2022-07-22T01:21:00,pkn,9.60
2022-07-22T01:22:00,pkn,4.80
2022-07-22T01:23:00,pkn,3.60
2022-07-22T01:24:00,pkn,6.00
2022-07-22T01:26:00,pkn,6.00
2022-07-22T01:27:00,pkn,1.20
2022-07-22T01:30:00,pkn,1.20
2022-07-22T01:32:00,pkn,2.40
2022-07-22T01:34:00,pkn,1.20
2022-07-22T01:36:00,pkn,1.20
2022-07-22T01:38:00,pkn,1.20
2022-07-22T01:40:00,pkn,1.20
2022-07-22T01:42:00,pkn,2.40
2022-07-22T01:45:00,pkn,1.20
2022-07-22T01:46:00,pkn,1.20
2022-07-22T01:48:00,pkn,1.20
2022-07-22T01:50:00,pkn,1.20
2022-07-22T01:52:00,pkn,1.20
2022-07-22T01:54:00,pkn,1.20
2022-07-22T01:57:00,pkn,1.20
2022-07-22T01:59:00,pkn,1.20
2022-07-22T02:01:00,pkn,1.20
2022-07-22T02:02:00,pkn,1.20
2022-07-22T02:04:00,pkn,1.20
2022-07-22T02:06:00,pkn,1.20
2022-07-22T02:09:00,pkn,1.20
2022-07-22T02:10:00,pkn,1.20
2022-07-22T02:12:00,pkn,1.20
2022-07-22T02:14:00,pkn,1.20
2022-07-22T02:16:00,pkn,1.20
2022-07-22T02:17:00,pkn,1.20
2022-07-22T02:19:00,pkn,1.20
2022-07-22T02:21:00,pkn,1.20
2022-07-22T02:24:00,pkn,1.20
2022-07-22T02:26:00,pkn,1.20
2022-07-22T02:27:00,pkn,1.20
2022-07-22T02:29:00,pkn,1.20
2022-07-22T02:31:00,pkn,2.40
2022-07-22T02:33:00,pkn,8.40
2022-07-22T02:34:00,pkn,4.80
2022-07-22T02:35:00,pkn,4.80
2022-07-22T02:37:00,pkn,9.60
2022-07-22T02:38:00,pkn,4.80
2022-07-22T02:39:00,pkn,1.20
2022-07-22T02:41:00,pkn,1.20
2022-07-22T02:43:00,pkn,1.20
2022-07-22T02:45:00,pkn,1.20
2022-07-22T02:47:00,pkn,2.40
2022-07-22T02:50:00,pkn,1.20
2022-07-22T02:51:00,pkn,1.20
2022-07-22T02:52:00,pkn,2.40
2022-07-22T02:54:00,pkn,1.20
2022-07-22T02:56:00,pkn,1.20
2022-07-22T02:59:00,pkn,1.20
2022-07-22T03:00:00,pkn,1.20
2022-07-22T03:02:00,pkn,1.20
2022-07-22T03:05:00,pkn,1.20
2022-07-22T03:07:00,pkn,1.20
2022-07-22T03:08:00,pkn,1.20
2022-07-22T03:10:00,pkn,1.20
2022-07-22T03:13:00,pkn,1.20
2022-07-22T03:15:00,pkn,1.20
2022-07-22T03:17:00,pkn,1.20
2022-07-22T03:19:00,pkn,1.20
2022-07-22T03:21:00,pkn,1.20
2022-07-22T03:23:00,pkn,1.20
2022-07-22T03:24:00,pkn,1.20
2022-07-22T03:26:00,pkn,1.20
2022-07-22T03:28:00,pkn,1.20
2022-07-22T03:30:00,pkn,1.20
2022-07-22T03:32:00,pkn,1.20
2022-07-22T03:34:00,pkn,1.20
2022-07-22T03:36:00,pkn,1.20
2022-07-22T03:38:00,pkn,1.20
2022-07-22T03:40:00,pkn,1.20
2022-07-22T03:42:00,pkn,1.20
2022-07-22T03:44:00,pkn,1.20
2022-07-22T03:46:00,pkn,1.20
2022-07-22T03:49:00,pkn,1.20
2022-07-22T03:51:00,pkn,1.20
2022-07-22T03:53:00,pkn,1.20
2022-07-22T03:54:00,pkn,1.20
2022-07-22T03:55:00,pkn,1.20
2022-07-22T03:57:00,pkn,1.20
2022-07-22T03:59:00,pkn,1.20
2022-07-22T04:00:00,pkn,1.20
2022-07-22T04:02:00,pkn,1.20
2022-07-22T04:05:00,pkn,1.20
2022-07-22T04:06:00,pkn,1.20
2022-07-22T04:08:00,pkn,1.20
2022-07-22T04:09:00,pkn,1.20
2022-07-22T04:11:00,pkn,1.20
2022-07-22T04:13:00,pkn,1.20
2022-07-22T04:16:00,pkn,1.20
2022-07-22T04:17:00,pkn,3.60
2022-07-22T04:19:00,pkn,9.60
2022-07-22T04:21:00,pkn,9.60
2022-07-22T04:23:00,pkn,8.40
2022-07-22T04:24:00,pkn,1.20
2022-07-22T04:25:00,pkn,1.20
2022-07-22T04:27:00,pkn,1.20
2022-07-22T04:29:00,pkn,1.20
2022-07-22T04:31:00,pkn,1.20
2022-07-22T04:33:00,pkn,1.20
2022-07-22T04:35:00,pkn,1.20
2022-07-22T04:37:00,pkn,1.20
2022-07-22T04:39:00,pkn,1.20
2022-07-22T04:41:00,pkn,1.20
2022-07-22T04:43:00,pkn,1.20
2022-07-22T04:44:00,pkn,1.20
2022-07-22T04:47:00,pkn,1.20
2022-07-22T04:49:00,pkn,1.20
2022-07-22T04:50:00,pkn,1.20
2022-07-22T04:52:00,pkn,1.20
2022-07-22T04:54:00,pkn,1.20
2022-07-22T04:57:00,pkn,1.20
2022-07-22T04:58:00,pkn,1.20
2022-07-22T05:01:00,pkn,1.20
2022-07-22T05:02:00,pkn,1.20
2022-07-22T05:04:00,pkn,1.20
2022-07-22T05:06:00,pkn,1.20
2022-07-22T05:07:00,pkn,1.20
2022-07-22T05:09:00,pkn,1.20
2022-07-22T05:12:00,pkn,2.40
2022-07-22T05:14:00,pkn,1.20
2022-07-22T05:16:00,pkn,1.20
2022-07-22T05:19:00,pkn,2.40
2022-07-22T05:22:00,pkn,1.20
2022-07-22T05:24:00,pkn,1.20
2022-07-22T05:25:00,pkn,1.20
2022-07-22T05:27:00,pkn,1.20
2022-07-22T05:29:00,pkn,1.20
2022-07-22T05:31:00,pkn,1.20
2022-07-22T05:33:00,pkn,1.20
2022-07-22T05:35:00,pkn,1.20
2022-07-22T05:37:00,pkn,1.20
2022-07-22T05:40:00,pkn,1.20
2022-07-22T05:41:00,pkn,1.20
2022-07-22T05:44:00,pkn,1.20
2022-07-22T05:45:00,pkn,1.20
2022-07-22T05:47:00,pkn,1.20
2022-07-22T05:50:00,pkn,1.20
2022-07-22T05:52:00,pkn,1.20
2022-07-22T05:54:00,pkn,1.20
2022-07-22T05:55:00,pkn,1.20
2022-07-22T05:58:00,pkn,1.20
2022-07-22T06:01:00,pkn,1.20
2022-07-22T06:03:00,pkn,1.20
2022-07-22T06:05:00,pkn,1.20
2022-07-22T06:07:00,pkn,1.20
2022-07-22T06:09:00,pkn,1.20
2022-07-22T06:10:00,pkn,1.20
2022-07-22T06:12:00,pkn,1.20
2022-07-22T06:15:00,pkn,1.20
2022-07-22T06:16:00,pkn,1.20
2022-07-22T06:18:00,pkn,1.20
2022-07-22T06:20:00,pkn,1.20
2022-07-22T06:22:00,pkn,1.20
2022-07-22T06:24:00,pkn,1.20
2022-07-22T06:26:00,pkn,1.20
2022-07-22T06:28:00,pkn,1.20
2022-07-22T06:30:00,pkn,1.20
2022-07-22T06:33:00,pkn,1.20
2022-07-22T06:35:00,pkn,2.40
2022-07-22T06:37:00,pkn,1.20
2022-07-22T06:40:00,pkn,4.80
2022-07-22T06:42:00,pkn,10.80
2022-07-22T06:44:00,pkn,9.60
2022-07-22T06:46:00,pkn,8.40
2022-07-22T06:48:00,pkn,9.60
2022-07-22T06:50:00,pkn,6.00
2022-07-22T06:51:00,pkn,1.20
2022-07-22T06:54:00,pkn,1.20
2022-07-22T06:56:00,pkn,1.20
2022-07-22T06:58:00,pkn,1.20
2022-07-22T06:59:00,pkn,1.20
2022-07-22T07:01:00,pkn,1.20
2022-07-22T07:03:00,pkn,1.20
2022-07-22T07:05:00,pkn,1.20
2022-07-22T07:06:00,pkn,1.20
2022-07-22T07:08:00,pkn,1.20
2022-07-22T07:10:00,pkn,4.80
2022-07-22T07:11:00,pkn,3.60
2022-07-22T07:13:00,pkn,10.80
2022-07-22T07:14:00,pkn,3.60
2022-07-22T07:16:00,pkn,9.60
2022-07-22T07:17:00,pkn,4.80
2022-07-22T07:19:00,pkn,9.60
2022-07-22T07:20:00,pkn,3.60
2022-07-22T07:22:00,pkn,9.60
2022-07-22T07:24:00,pkn,7.20
2022-07-22T07:25:00,pkn,1.20
2022-07-22T07:27:00,pkn,1.20
2022-07-22T07:29:00,pkn,1.20
2022-07-22T07:32:00,pkn,1.20
2022-07-22T07:34:00,pkn,1.20
2022-07-22T07:36:00,pkn,1.20
2022-07-22T07:38:00,pkn,1.20
2022-07-22T07:40:00,pkn,2.40
2022-07-22T07:43:00,pkn,1.20
2022-07-22T07:44:00,pkn,3.60
2022-07-22T07:45:00,pkn,4.80
2022-07-22T07:47:00,pkn,8.40
2022-07-22T07:48:00,pkn,6.00
2022-07-22T07:50:00,pkn,9.60
2022-07-22T07:51:00,pkn,3.60
2022-07-22T07:53:00,pkn,4.80
2022-07-22T07:54:00,pkn,1.20
2022-07-22T07:56:00,pkn,1.20
2022-07-22T07:58:00,pkn,1.20
2022-07-22T08:00:00,pkn,1.20
2022-07-22T08:02:00,pkn,2.40
2022-07-22T08:05:00,pkn,1.20
2022-07-22T08:06:00,pkn,1.20
2022-07-22T08:08:00,pkn,1.20
2022-07-22T08:10:00,pkn,1.20
2022-07-22T08:12:00,pkn,1.20
2022-07-22T08:15:00,pkn,1.20
2022-07-22T08:16:00,pkn,1.20
2022-07-22T08:18:00,pkn,1.20
2022-07-22T08:20:00,pkn,1.20
2022-07-22T08:22:00,pkn,1.20
2022-07-22T08:25:00,pkn,2.40
2022-07-22T08:27:00,pkn,8.40
2022-07-22T08:28:00,pkn,6.00
2022-07-22T08:30:00,pkn,9.60
2022-07-22T08:32:00,pkn,8.40
2022-07-22T08:33:00,pkn,6.00
2022-07-22T08:35:00,pkn,8.40
2022-07-22T08:37:00,pkn,9.60
2022-07-22T08:39:00,pkn,9.60
2022-07-22T08:41:00,pkn,8.40
2022-07-22T08:43:00,pkn,9.60
2022-07-22T08:44:00,pkn,4.80
2022-07-22T08:45:00,pkn,4.80
2022-07-22T08:47:00,pkn,8.40
2022-07-22T08:48:00,pkn,6.00
2022-07-22T08:50:00,pkn,9.60
2022-07-22T08:52:00,pkn,8.40
2022-07-22T08:54:00,pkn,9.60
2022-07-22T08:56:00,pkn,9.60
2022-07-22T08:57:00,pkn,3.60
2022-07-22T08:59:00,pkn,9.60
2022-07-22T09:01:00,pkn,8.40
2022-07-22T09:03:00,pkn,9.60
2022-07-22T09:05:00,pkn,9.60
2022-07-22T09:07:00,pkn,8.40
2022-07-22T09:09:00,pkn,9.60
2022-07-22T09:10:00,pkn,3.60
2022-07-22T09:12:00,pkn,9.60
2022-07-22T09:13:00,pkn,4.80
2022-07-22T09:15:00,pkn,4.80
2022-07-22T09:17:00,pkn,1.20
2022-07-22T09:19:00,pkn,1.20
2022-07-22T09:21:00,pkn,1.20
2022-07-22T09:23:00,pkn,1.20
2022-07-22T09:25:00,pkn,1.20
2022-07-22T09:27:00,pkn,8.40
2022-07-22T09:28:00,pkn,4.80
2022-07-22T09:30:00,pkn,8.40
2022-07-22T09:32:00,pkn,9.60
2022-07-22T09:33:00,pkn,4.80
2022-07-22T09:35:00,pkn,9.60
2022-07-22T09:36:00,pkn,3.60
2022-07-22T09:38:00,pkn,9.60
2022-07-22T09:40:00,pkn,8.40
2022-07-22T09:41:00,pkn,1.20
2022-07-22T09:42:00,pkn,2.40
2022-07-22T09:44:00,pkn,1.20
2022-07-22T09:46:00,pkn,1.20
2022-07-22T09:49:00,pkn,1.20
2022-07-22T09:51:00,pkn,1.20
2022-07-22T09:53:00,pkn,1.20
2022-07-22T09:55:00,pkn,3.60
2022-07-22T09:57:00,pkn,8.40
2022-07-22T09:58:00,pkn,4.80
2022-07-22T10:00:00,pkn,8.40
2022-07-22T10:01:00,pkn,1.20
2022-07-22T10:02:00,pkn,8.40
2022-07-22T10:04:00,pkn,9.60
2022-07-22T10:06:00,pkn,9.60
2022-07-22T10:08:00,pkn,8.40
2022-07-22T10:10:00,pkn,2.40
2022-07-22T10:11:00,pkn,1.20
2022-07-22T10:13:00,pkn,1.20
2022-07-22T10:15:00,pkn,1.20
2022-07-22T10:18:00,pkn,1.20
2022-07-22T10:20:00,pkn,1.20
2022-07-22T10:22:00,pkn,1.20
2022-07-22T10:24:00,pkn,1.20
2022-07-22T10:25:00,pkn,1.20
2022-07-22T10:27:00,pkn,6.00
2022-07-22T10:29:00,pkn,9.60
2022-07-22T10:30:00,pkn,3.60
2022-07-22T10:32:00,pkn,9.60
2022-07-22T10:34:00,pkn,8.40
2022-07-22T10:36:00,pkn,9.60
2022-07-22T10:37:00,pkn,3.60
2022-07-22T10:40:00,pkn,1.20
2022-07-22T10:41:00,pkn,1.20
2022-07-22T10:44:00,pkn,1.20
2022-07-22T10:45:00,pkn,1.20
2022-07-22T10:49:00,pkn,1.20
2022-07-22T10:51:00,pkn,1.20
2022-07-22T10:53:00,pkn,1.20
2022-07-22T10:55:00,pkn,1.20
2022-07-22T10:57:00,pkn,1.20
2022-07-22T10:59:00,pkn,8.40
2022-07-22T11:00:00,pkn,4.80
2022-07-22T11:02:00,pkn,8.40
2022-07-22T11:03:00,pkn,4.80
2022-07-22T11:05:00,pkn,8.40
2022-07-22T11:07:00,pkn,9.60
2022-07-22T11:08:00,pkn,1.20
2022-07-22T11:09:00,pkn,1.20
2022-07-22T11:11:00,pkn,1.20
2022-07-22T11:14:00,pkn,1.20
2022-07-22T11:16:00,pkn,1.20
2022-07-22T11:19:00,pkn,1.20
2022-07-22T11:20:00,pkn,1.20
2022-07-22T11:23:00,pkn,1.20
2022-07-22T11:25:00,pkn,1.20
2022-07-22T11:29:00,pkn,1.20
2022-07-22T11:31:00,pkn,1.20
2022-07-22T11:33:00,pkn,1.20
2022-07-22T11:34:00,pkn,4.80
2022-07-22T11:36:00,pkn,8.40
2022-07-22T11:38:00,pkn,9.60
2022-07-22T11:40:00,pkn,8.40
2022-07-22T11:42:00,pkn,8.40
2022-07-22T11:44:00,pkn,3.60
2022-07-22T11:46:00,pkn,1.20
2022-07-22T11:48:00,pkn,1.20
2022-07-22T11:52:00,pkn,1.20
2022-07-22T11:55:00,pkn,1.20
2022-07-22T11:58:00,pkn,1.20
2022-07-22T12:02:00,pkn,1.20
2022-07-22T12:05:00,pkn,1.20
2022-07-22T12:07:00,pkn,1.20
2022-07-22T12:10:00,pkn,1.20
2022-07-22T12:12:00,pkn,1.20
2022-07-22T12:14:00,pkn,1.20
2022-07-22T12:15:00,pkn,7.20
2022-07-22T12:16:00,pkn,3.60
2022-07-22T12:18:00,pkn,9.60
2022-07-22T12:19:00,pkn,4.80
2022-07-22T12:20:00,pkn,3.60
2022-07-22T12:22:00,pkn,9.60
2022-07-22T12:23:00,pkn,3.60
2022-07-22T12:25:00,pkn,1.20
2022-07-22T12:28:00,pkn,1.20
2022-07-22T12:31:00,pkn,1.20
2022-07-22T12:32:00,pkn,1.20
2022-07-22T12:34:00,pkn,1.20
2022-07-22T12:39:00,pkn,1.20
2022-07-22T12:41:00,pkn,1.20
2022-07-22T12:43:00,pkn,1.20
2022-07-22T12:45:00,pkn,1.20
2022-07-22T12:48:00,pkn,1.20
2022-07-22T12:50:00,pkn,1.20
2022-07-22T12:53:00,pkn,1.20
2022-07-22T12:56:00,pkn,1.20
2022-07-22T12:58:00,pkn,1.20
2022-07-22T13:01:00,pkn,1.20
2022-07-22T13:03:00,pkn,3.60
2022-07-22T13:04:00,pkn,6.00
2022-07-22T13:07:00,pkn,8.40
2022-07-22T13:08:00,pkn,8.40
2022-07-22T13:10:00,pkn,9.60
2022-07-22T13:12:00,pkn,1.20
2022-07-22T13:13:00,pkn,1.20
2022-07-22T13:17:00,pkn,1.20
2022-07-22T13:18:00,pkn,1.20
2022-07-22T13:20:00,pkn,1.20
2022-07-22T13:23:00,pkn,1.20
2022-07-22T13:25:00,pkn,1.20
2022-07-22T13:28:00,pkn,1.20
2022-07-22T13:30:00,pkn,1.20
2022-07-22T13:32:00,pkn,1.20
2022-07-22T13:34:00,pkn,1.20
2022-07-22T13:36:00,pkn,1.20
2022-07-22T13:38:00,pkn,1.20
2022-07-22T13:40:00,pkn,1.20
2022-07-22T13:42:00,pkn,1.20
2022-07-22T13:44:00,pkn,1.20
2022-07-22T13:46:00,pkn,1.20
2022-07-22T13:49:00,pkn,1.20
2022-07-22T13:50:00,pkn,4.80
2022-07-22T13:52:00,pkn,9.60
2022-07-22T13:53:00,pkn,4.80
2022-07-22T13:54:00,pkn,3.60
2022-07-22T13:56:00,pkn,10.80
2022-07-22T13:57:00,pkn,4.80
2022-07-22T13:58:00,pkn,2.40
2022-07-22T14:00:00,pkn,1.20
2022-07-22T14:01:00,pkn,1.20
2022-07-22T14:04:00,pkn,1.20
2022-07-22T14:05:00,pkn,1.20
2022-07-22T14:07:00,pkn,1.20
2022-07-22T14:08:00,pkn,1.20
2022-07-22T14:10:00,pkn,1.20
2022-07-22T14:12:00,pkn,1.20
2022-07-22T14:14:00,pkn,1.20
2022-07-22T14:16:00,pkn,1.20
2022-07-22T14:18:00,pkn,1.20
2022-07-22T14:21:00,pkn,1.20
2022-07-22T14:22:00,pkn,1.20
2022-07-22T14:24:00,pkn,1.20
2022-07-22T14:26:00,pkn,1.20
2022-07-22T14:29:00,pkn,1.20
2022-07-22T14:30:00,pkn,1.20
2022-07-22T14:32:00,pkn,4.80
2022-07-22T14:34:00,pkn,8.40
2022-07-22T14:35:00,pkn,4.80
2022-07-22T14:36:00,pkn,4.80
2022-07-22T14:37:00,pkn,3.60
2022-07-22T14:39:00,pkn,9.60
2022-07-22T14:41:00,pkn,3.60
2022-07-22T14:44:00,pkn,1.20
2022-07-22T14:46:00,pkn,1.20
2022-07-22T14:47:00,pkn,1.20
2022-07-22T14:49:00,pkn,1.20
2022-07-22T14:51:00,pkn,1.20
2022-07-22T14:53:00,pkn,1.20
2022-07-22T14:54:00,pkn,1.20
2022-07-22T14:56:00,pkn,1.20
2022-07-22T14:58:00,pkn,1.20
2022-07-22T15:00:00,pkn,1.20
2022-07-22T15:01:00,pkn,1.20
2022-07-22T15:03:00,pkn,1.20
2022-07-22T15:05:00,pkn,1.20
2022-07-22T15:06:00,pkn,1.20
2022-07-22T15:08:00,pkn,1.20
2022-07-22T15:10:00,pkn,1.20
2022-07-22T15:12:00,pkn,1.20
2022-07-22T15:14:00,pkn,1.20
2022-07-22T15:15:00,pkn,1.20
2022-07-22T15:17:00,pkn,1.20
2022-07-22T15:18:00,pkn,3.60
2022-07-22T15:19:00,pkn,4.80
2022-07-22T15:21:00,pkn,9.60
2022-07-22T15:22:00,pkn,4.80
2022-07-22T15:24:00,pkn,8.40
2022-07-22T15:25:00,pkn,6.00
2022-07-22T15:26:00,pkn,3.60
2022-07-22T15:28:00,pkn,9.60
2022-07-22T15:29:00,pkn,1.20
2022-07-22T15:31:00,pkn,1.20
2022-07-22T15:34:00,pkn,1.20
2022-07-22T15:36:00,pkn,1.20
2022-07-22T15:38:00,pkn,1.20
2022-07-22T15:41:00,pkn,1.20
2022-07-22T15:43:00,pkn,1.20
2022-07-22T15:44:00,pkn,1.20
2022-07-22T15:46:00,pkn,1.20
2022-07-22T15:49:00,pkn,1.20
2022-07-22T15:50:00,pkn,3.60
2022-07-22T15:52:00,pkn,9.60
2022-07-22T15:54:00,pkn,9.60
2022-07-22T15:56:00,pkn,9.60
2022-07-22T15:58:00,pkn,8.40
2022-07-22T16:00:00,pkn,4.80
2022-07-22T16:01:00,pkn,1.20
2022-07-22T16:03:00,pkn,1.20
2022-07-22T16:05:00,pkn,1.20
2022-07-22T16:07:00,pkn,1.20
2022-07-22T16:10:00,pkn,2.40
2022-07-22T16:13:00,pkn,1.20
2022-07-22T16:15:00,pkn,1.20
2022-07-22T16:16:00,pkn,1.20
2022-07-22T16:19:00,pkn,1.20
2022-07-22T16:21:00,pkn,1.20
2022-07-22T16:22:00,pkn,1.20
2022-07-22T16:24:00,pkn,1.20
2022-07-22T16:26:00,pkn,1.20
2022-07-22T16:28:00,pkn,1.20
2022-07-22T16:30:00,pkn,1.20
2022-07-22T16:32:00,pkn,2.40
2022-07-22T16:34:00,pkn,2.40
2022-07-22T16:35:00,pkn,1.20
2022-07-22T16:36:00,pkn,8.40
2022-07-22T16:37:00,pkn,6.00
2022-07-22T16:38:00,pkn,4.80
2022-07-22T16:40:00,pkn,9.60
2022-07-22T16:42:00,pkn,6.00
2022-07-22T16:44:00,pkn,1.20
2022-07-22T16:46:00,pkn,1.20
2022-07-22T16:47:00,pkn,1.20
2022-07-22T16:50:00,pkn,1.20
2022-07-22T16:52:00,pkn,1.20
2022-07-22T16:55:00,pkn,1.20
2022-07-22T16:57:00,pkn,1.20
2022-07-22T16:59:00,pkn,1.20
2022-07-22T17:00:00,pkn,1.20
2022-07-22T17:02:00,pkn,1.20
2022-07-22T17:04:00,pkn,1.20
2022-07-22T17:06:00,pkn,1.20
2022-07-22T17:08:00,pkn,1.20
2022-07-22T17:10:00,pkn,1.20
2022-07-22T17:13:00,pkn,1.20
2022-07-22T17:16:00,pkn,1.20
2022-07-22T17:17:00,pkn,1.20
2022-07-22T17:19:00,pkn,1.20
2022-07-22T17:21:00,pkn,3.60
2022-07-22T17:23:00,pkn,9.60
2022-07-22T17:25:00,pkn,9.60
2022-07-22T17:26:00,pkn,3.60
2022-07-22T17:28:00,pkn,9.60
2022-07-22T17:30:00,pkn,2.40
2022-07-22T17:32:00,pkn,1.20
2022-07-22T17:34:00,pkn,1.20
2022-07-22T17:37:00,pkn,1.20
2022-07-22T17:39:00,pkn,1.20
2022-07-22T17:41:00,pkn,1.20
2022-07-22T17:44:00,pkn,1.20
2022-07-22T17:47:00,pkn,1.20
2022-07-22T17:48:00,pkn,1.20
2022-07-22T17:52:00,pkn,1.20
2022-07-22T17:54:00,pkn,1.20
2022-07-22T17:56:00,pkn,1.20
2022-07-22T17:58:00,pkn,1.20
2022-07-22T18:00:00,pkn,1.20
2022-07-22T18:03:00,pkn,1.20
2022-07-22T18:04:00,pkn,1.20
2022-07-22T18:08:00,pkn,1.20
2022-07-22T18:10:00,pkn,1.20
2022-07-22T18:12:00,pkn,1.20
2022-07-22T18:14:00,pkn,1.20
2022-07-22T18:16:00,pkn,1.20
2022-07-22T18:18:00,pkn,3.60
2022-07-22T18:20:00,pkn,8.40
2022-07-22T18:21:00,pkn,4.80
2022-07-22T18:23:00,pkn,9.60
2022-07-22T18:24:00,pkn,3.60
2022-07-22T18:25:00,pkn,6.00
2022-07-22T18:26:00,pkn,2.40
2022-07-22T18:28:00,pkn,1.20
2022-07-22T18:30:00,pkn,1.20
2022-07-22T18:32:00,pkn,1.20
2022-07-22T18:33:00,pkn,1.20
2022-07-22T18:35:00,pkn,1.20
2022-07-22T18:36:00,pkn,1.20
2022-07-22T18:38:00,pkn,1.20
2022-07-22T18:40:00,pkn,1.20
2022-07-22T18:42:00,pkn,1.20
2022-07-22T18:44:00,pkn,1.20
2022-07-22T18:46:00,pkn,1.20
2022-07-22T18:47:00,pkn,1.20
2022-07-22T18:49:00,pkn,1.20
2022-07-22T18:53:00,pkn,1.20
2022-07-22T18:55:00,pkn,1.20
2022-07-22T18:57:00,pkn,1.20
2022-07-22T18:59:00,pkn,1.20
2022-07-22T19:01:00,pkn,1.20
2022-07-22T19:03:00,pkn,1.20
2022-07-22T19:06:00,pkn,1.20
2022-07-22T19:07:00,pkn,1.20
2022-07-22T19:10:00,pkn,1.20
2022-07-22T19:12:00,pkn,1.20
2022-07-22T19:14:00,pkn,1.20
2022-07-22T19:17:00,pkn,2.40
2022-07-22T19:20:00,pkn,1.20
2022-07-22T19:21:00,pkn,1.20
2022-07-22T19:23:00,pkn,1.20
2022-07-22T19:26:00,pkn,2.40
2022-07-22T19:28:00,pkn,1.20
2022-07-22T19:30:00,pkn,1.20
2022-07-22T19:31:00,pkn,1.20
2022-07-22T19:33:00,pkn,4.80
2022-07-22T19:34:00,pkn,3.60
2022-07-22T19:36:00,pkn,9.60
2022-07-22T19:38:00,pkn,9.60
2022-07-22T19:40:00,pkn,8.40
2022-07-22T19:41:00,pkn,4.80
2022-07-22T19:42:00,pkn,1.20
2022-07-22T19:43:00,pkn,1.20
2022-07-22T19:44:00,pkn,1.20
2022-07-22T19:46:00,pkn,1.20
2022-07-22T19:48:00,pkn,1.20
2022-07-22T19:50:00,pkn,1.20
2022-07-22T19:53:00,pkn,1.20
2022-07-22T19:54:00,pkn,1.20
2022-07-22T19:56:00,pkn,1.20
2022-07-22T19:59:00,pkn,1.20
2022-07-22T20:01:00,pkn,1.20
2022-07-22T20:03:00,pkn,1.20
2022-07-22T20:05:00,pkn,1.20
2022-07-22T20:07:00,pkn,1.20
2022-07-22T20:10:00,pkn,1.20
2022-07-22T20:12:00,pkn,1.20
2022-07-22T20:14:00,pkn,1.20
2022-07-22T20:16:00,pkn,1.20
2022-07-22T20:18:00,pkn,1.20
2022-07-22T20:21:00,pkn,1.20
2022-07-22T20:23:00,pkn,1.20
2022-07-22T20:25:00,pkn,1.20
2022-07-22T20:27:00,pkn,1.20
2022-07-22T20:29:00,pkn,1.20
2022-07-22T20:31:00,pkn,1.20
2022-07-22T20:33:00,pkn,1.20
2022-07-22T20:35:00,pkn,1.20
2022-07-22T20:37:00,pkn,1.20
2022-07-22T20:38:00,pkn,1.20
2022-07-22T20:40:00,pkn,1.20
2022-07-22T20:42:00,pkn,1.20
2022-07-22T20:44:00,pkn,1.20
2022-07-22T20:47:00,pkn,1.20
2022-07-22T20:50:00,pkn,1.20
2022-07-22T20:52:00,pkn,1.20
2022-07-22T20:53:00,pkn,1.20
2022-07-22T20:57:00,pkn,1.20
2022-07-22T20:58:00,pkn,1.20
2022-07-22T21:00:00,pkn,1.20
2022-07-22T21:03:00,pkn,1.20
2022-07-22T21:05:00,pkn,1.20
2022-07-22T21:07:00,pkn,1.20
2022-07-22T21:10:00,pkn,1.20
2022-07-22T21:11:00,pkn,1.20
2022-07-22T21:15:00,pkn,1.20
2022-07-22T21:17:00,pkn,4.80
2022-07-22T21:19:00,pkn,9.60
2022-07-22T21:20:00,pkn,6.00
2022-07-22T21:22:00,pkn,9.60
2022-07-22T21:24:00,pkn,8.40
2022-07-22T21:25:00,pkn,1.20
2022-07-22T21:27:00,pkn,1.20
2022-07-22T21:29:00,pkn,2.40
2022-07-22T21:31:00,pkn,1.20
2022-07-22T21:33:00,pkn,1.20
2022-07-22T21:35:00,pkn,2.40
2022-07-22T21:37:00,pkn,1.20
2022-07-22T21:39:00,pkn,1.20
2022-07-22T21:41:00,pkn,2.40
2022-07-22T21:42:00,pkn,1.20
2022-07-22T21:45:00,pkn,2.40
2022-07-22T21:47:00,pkn,1.20
2022-07-22T21:49:00,pkn,1.20
2022-07-22T21:51:00,pkn,2.40
2022-07-22T21:53:00,pkn,1.20
2022-07-22T21:55:00,pkn,1.20
2022-07-22T21:56:00,pkn,1.20
2022-07-22T21:58:00,pkn,1.20
2022-07-22T22:00:00,pkn,1.20
2022-07-22T22:02:00,pkn,2.40
2022-07-22T22:05:00,pkn,2.40
2022-07-22T22:07:00,pkn,1.20
2022-07-22T22:09:00,pkn,1.20
2022-07-22T22:10:00,pkn,1.20
2022-07-22T22:13:00,pkn,2.40
2022-07-22T22:16:00,pkn,2.40
2022-07-22T22:18:00,pkn,1.20
2022-07-22T22:20:00,pkn,1.20
2022-07-22T22:22:00,pkn,1.20
2022-07-22T22:23:00,pkn,1.20
2022-07-22T22:25:00,pkn,1.20
2022-07-22T22:26:00,pkn,1.20
2022-07-22T22:27:00,pkn,1.20
2022-07-22T22:29:00,pkn,1.20
2022-07-22T22:30:00,pkn,1.20
2022-07-22T22:32:00,pkn,1.20
2022-07-22T22:33:00,pkn,1.20
2022-07-22T22:35:00,pkn,2.40
2022-07-22T22:37:00,pkn,1.20
2022-07-22T22:39:00,pkn,2.40
2022-07-22T22:42:00,pkn,2.40
2022-07-22T22:45:00,pkn,2.40
2022-07-22T22:47:00,pkn,1.20
2022-07-22T22:49:00,pkn,2.40
2022-07-22T22:51:00,pkn,1.20
2022-07-22T22:53:00,pkn,1.20
2022-07-22T22:55:00,pkn,2.40
2022-07-22T22:58:00,pkn,2.40
2022-07-22T23:00:00,pkn,1.20
2022-07-22T23:02:00,pkn,2.40
2022-07-22T23:04:00,pkn,1.20
2022-07-22T23:06:00,pkn,1.20
2022-07-22T23:07:00,pkn,1.20
2022-07-22T23:09:00,pkn,1.20
2022-07-22T23:11:00,pkn,2.40
2022-07-22T23:13:00,pkn,1.20
2022-07-22T23:15:00,pkn,1.20
2022-07-22T23:16:00,pkn,1.20
2022-07-22T23:18:00,pkn,1.20
2022-07-22T23:20:00,pkn,2.40
2022-07-22T23:23:00,pkn,4.80
2022-07-22T23:24:00,pkn,4.80
2022-07-22T23:26:00,pkn,9.60
2022-07-22T23:28:00,pkn,9.60
2022-07-22T23:30:00,pkn,8.40
2022-07-22T23:32:00,pkn,1.20
2022-07-22T23:34:00,pkn,2.40
2022-07-22T23:36:00,pkn,1.20
2022-07-22T23:37:00,pkn,1.20
2022-07-22T23:38:00,pkn,1.20
2022-07-22T23:40:00,pkn,1.20
2022-07-22T23:42:00,pkn,2.40
2022-07-22T23:44:00,pkn,1.20
2022-07-22T23:46:00,pkn,2.40
2022-07-22T23:48:00,pkn,1.20
2022-07-22T23:50:00,pkn,1.20
2022-07-22T23:52:00,pkn,2.40
2022-07-22T23:54:00,pkn,1.20
2022-07-22T23:55:00,pkn,1.20
2022-07-22T23:57:00,pkn,1.20
2022-07-22T23:59:00,pkn,1.20
